Weather Roundup
Issued by NWS

Home | Current Version | Previous Version | Graphics & Text | Print | Product List | Glossary Off
Versions: 1 2 3 4 5 6 7 8 9 10 11 12 13 14 15 16 17 18 19 20 21 22 23 24 25 26 27 28 29 30 31 32 33 34 35 36 37 38 39 40 41 42 43 44 45 46 47 48 49 50

000
NZUS93 KARX 060810
HRRWXR

CURRENT HOURLY OBSERVATIONS ACROSS
MUCH OF THE UPPER MISSISSIPPI VALLEY
NATIONAL WEATHER SERVICE LA CROSSE WI
300 AM CDT MON JUL 06 2015


...SOUTHEAST MINNESOTA...


CITY           SKY/WX    TMP DP  RH WIND       PRES   REMARKS
ROCHESTER      CLOUDY    72  68  87 S17       29.82F
ROCHESTER/MAYO PTSUNNY   73  69  87 SE12G21   29.81F
WINONA         CLOUDY    73  68  83 S5        29.82F
AUSTIN         CLOUDY    75  68  78 S15G21    29.81F
ALBERT LEA     CLOUDY    73  66  78 S16G23    29.78F
DODGE CENTER   CLOUDY    73  68  83 S22G28    29.78F
PRESTON        CLOUDY    70  66  88 S15G24    29.85F
OWATONNA       CLOUDY    75  66  73 S20G25    29.76F
FARIBAULT      CLOUDY    73  68  83 SE13      29.75F
$$

...ELSEWHERE IN MINNESOTA...


CITY           SKY/WX    TMP DP  RH WIND       PRES   REMARKS
MINNEAPOLIS    TSTM      72  70  93 N14       29.79R FOG
INTNL FALLS    PTCLDY    54  54 100 CALM      29.89R FOG
DULUTH         CLOUDY    66  64  93 CALM      29.83S FOG
RED WING       TSTM      73  70  88 SE13      29.77F
REDWOOD FALLS  RAIN      70  68  93 NE6       29.79S FOG
MANKATO        CLOUDY    73  68  83 NW16      29.77R THUNDER
WORTHINGTON    CLOUDY    70  66  88 N8        29.84R
FAIRMONT       CLOUDY    75  66  73 SW14G20   29.77R
$$

...SOUTHWEST WISCONSIN...


CITY           SKY/WX    TMP DP  RH WIND       PRES   REMARKS
LA CROSSE      CLOUDY    74  67  78 S15G22    29.84F
PRAIRIE DU CHI CLOUDY    72  64  75 SE7       29.89F
BOSCOBEL       CLOUDY    72  65  78 S7        29.90F HAZE
LONE ROCK      MOCLDY    69  64  84 E5        29.93F
PLATTEVILLE    PTCLDY    68  66  92 S9        29.95F
FORT MC COY    CLOUDY    71  63  76 S6        29.87F
CAMP DOUGLAS   CLOUDY    69  69 100 S8        29.87F
VIROQUA        FAIR      69  66  89 S13       29.90F
WIS DELLS      MOCLDY    69  62  79 S8        29.93F
$$

...ELSEWHERE IN WISCONSIN...


CITY           SKY/WX    TMP DP  RH WIND       PRES   REMARKS
MILWAUKEE      PTCLDY    66  59  78 S5        30.01R
MADISON        CLEAR     70  63  78 S6        29.96F
GREEN BAY      PTCLDY    66  62  87 S9        29.95F FOG
EAU CLAIRE     CLOUDY    73  66  78 CALM      29.85R
BLACK RVR FLS  FAIR      70  65  83 S5        29.85F
MEDFORD        CLOUDY    67  64  91 S7        29.89F
WAUSAU         CLOUDY    68  63  84 SE6       29.88F
WIS RAPIDS     CLOUDY    68  62  81 S6        29.90F
MARSHFIELD     CLOUDY    68  62  81 S10       29.89F
RICE LAKE      HVY RAIN  68  65  89 N7        29.90S
$$

...NORTHEAST IOWA...


CITY           SKY/WX    TMP DP  RH WIND       PRES   REMARKS
DECORAH          N/A    N/A N/A N/A MISG        N/A
MASON CITY     CLOUDY    73  69  87 S13       29.83F
CHARLES CITY   CLOUDY    73  72  94 S16G23    29.85F
OELWEIN          N/A     70  68  94 S10       29.89F FOG
$$

...ELSEWHERE IN IOWA...


CITY           SKY/WX    TMP DP  RH WIND       PRES   REMARKS
DES MOINES     CLOUDY    78  71  79 S15       29.82F THUNDER
IOWA CITY      PTCLDY    69  67  93 SE6       29.94R FOG
FORT DODGE     CLOUDY    75  70  83 S15       29.83R
$$

...NORTHERN ILLINOIS...


CITY           SKY/WX    TMP DP  RH WIND       PRES   REMARKS
CHICAGO-OHARE  CLEAR     69  62  78 CALM      30.02R
CHICAGO-MIDWAY CLEAR     72  64  76 SW3       30.02R
MOLINE         CLEAR     69  64  84 S6        29.96R HAZE
ROCKFORD       PTCLDY    66  62  87 SW3       30.03R
PEORIA         CLEAR     72  64  76 S9        29.99F
$$

NOTE: "FAIR" INDICATES FEW OR NO CLOUDS BELOW 12,000 FEET WITH NO
SIGNIFICANT WEATHER AND/OR OBSTRUCTIONS TO VISIBILITY. WIND
SPEEDS ARE IN MILES-PER-HOUR.



USA.gov is the U.S. government's official web portal to all federal, state and local government web resources and services.